RH
96 99 100 100 99 99 93 86 84 90 98 100 100 100 100 100 100 100 100 100 100 100 99 95 84 80 71 74 68 68 64 64 54 48 43 60 68 73 65 80 85 87 83
94 94 96 98 100 100 100 100 100 100 98 98 100 100 100 100 100 100 100 100 100 100 100 100 97 92 84 77 78 77 74 68 68 63 59 53 67 76 78 78 83 80 79
96 94 94 94 94 100 100 100 100 100 100 100 100 100 100 100 100 100 100 100 100 100 100 100 99 98 95 91 85 84 84 81 72 70 63 60 69 78 85 84 86 85 80
96 98 99 99 96 94 94 96 88 97 100 100 100 100 100 100 100 100 100 100 100 100 100 100 100 100 98 97 96 91 88 88 81 78 73 88 92 94 89 94 94 93 90
95 97 99 99 100 92 81 79 81 90 90 94 99 99 100 100 100 98 100 100 100 100 100 100 100 100 98 98 99 98 96 98 97 92 88 92 93 94 95 89 93 90 98
97 98 98 97 92 97 89 82 71 75 77 86 88 87 94 95 98 97 96 100 100 100 100 100 100 99 98 98 95 94 98 99 99 98 96 96 95 96 95 93 95 99 99
94 95 97 96 96 96 91 86 89 74 74 74 82 98 85 85 77 86 89 98 99 100 100 100 100 100 100 100 100 100 98 93 85 94 96 96 92 95 96 96 98 98 94
92 89 94 94 98 94 94 94 83 91 78 79 74 75 80 90 69 77 63 74 80 90 99 100 99 100 100 100 100 100 100 100 99 96 96 87 91 91 93 86 94 98 98
87 90 91 94 92 91 95 98 99 90 89 70 70 62 64 70 82 62 60 83 62 54 84 74 86 98 100 100 100 100 100 99 100 100 98 94 98 96 93 98 100 100 100
88 94 93 90 90 83 92 92 96 99 94 94 61 62 53 58 64 62 65 62 76 64 58 62 64 75 82 97 99 100 100 98 99 100 100 100 100 100 100 98 99 99 99
78 84 86 90 90 94 95 98 98 99 100 98 99 82 63 47 43 60 53 63 71 72 59 55 48 58 89 98 99 99 99 100 100 100 100 100 100 100 100 100 100 99 100
72 74 79 88 91 93 97 97 98 94 94 96 93 92 93 89 70 60 61 61 64 71 68 55 47 53 76 90 92 95 96 98 99 100 100 99 100 100 98 100 100 100 100
66 69 78 88 92 95 95 94 95 93 91 86 86 83 87 88 90 90 87 71 74 84 68 63 54 46 64 76 82 87 91 91 93 100 99 98 100 98 100 100 100 100 100
64 68 72 78 90 89 91 96 94 91 90 86 86 86 86 88 91 93 96 94 94 100 100 99 91 66 50 66 69 79 95 91 91 97 100 99 100 100 99 100 100 100 100
66 67 76 87 91 89 90 92 96 96 92 92 92 90 92 95 92 92 91 89 88 97 100 100 98 99 100 89 89 76 99 98 98 100 99 99 99 100 100 100 100 100 100
75 78 85 91 93 94 93 96 96 94 96 95 94 94 97 97 91 92 92 92 90 82 91 99 99 99 98 98 96 98 98 98 97 97 100 99 99 100 100 100 100 100 99
83 81 88 90 91 94 94 93 95 92 90 95 92 92 91 92 85 85 87 86 89 93 96 92 94 98 100 99 98 100 99 97 98 99 99 99 100 100 100 100 100 100 100
93 91 88 88 92 96 95 97 99 96 95 93 88 90 92 90 88 90 89 92 98 96 95 89 93 94 96 99 98 93 99 99 99 99 99 100 100 100 100 100 100 100 100
100 94 93 97 98 98 98 98 99 96 94 92 91 90 87 91 90 93 92 100 96 90 88 88 89 88 93 95 99 100 100 97 98 99 100 99 99 100 100 100 100 100 100
97 96 100 99 99 97 93 91 89 92 89 90 88 86 89 93 100 100 94 94 99 95 91 88 91 90 92 96 98 99 100 100 100 100 100 100 100 100 100 100 100 100 100
98 95 96 99 100 96 92 90 93 93 89 88 90 89 91 100 100 98 91 95 92 94 95 93 93 93 97 98 99 100 100 99 100 100 100 100 100 100 100 100 100 100 100
93 94 94 94 92 89 91 96 96 92 93 91 91 93 94 100 100 100 100 98 98 99 99 100 99 95 98 100 100 99 99 100 99 100 100 100 100 100 100 100 100 100 100
92 96 93 87 90 92 93 97 92 94 95 96 98 99 97 99 99 100 100 99 100 99 100 100 100 100 100 100 100 99 100 99 98 99 99 100 100 100 100 100 100 100 100
95 95 89 91 94 94 96 96 94 97 98 98 97 98 99 100 100 100 99 99 100 100 100 100 100 100 100 99 100 100 100 100 100 100 99 99 100 100 100 100 100 100 100
97 97 94 98 98 99 99 98 98 99 99 99 100 99 98 98 99 99 99 99 99 99 99 100 100 100 100 100 100 100 100 100 100 100 100 99 99 99 100 100 100 100 100
94 91 93 95 98 98 99 99 98 99 99 100 99 98 97 96 96 99 99 100 100 100 99 99 99 100 100 100 100 100 100 100 100 100 99 99 99 100 100 100 100 100 100
Wind_Speed
34 35 34 33 27 10 12 28 32 31 31 33 38 41 43 44 46 45 45 42 43 42 40 40 41 38 33 31 30 31 30 28 22 25 23 21 21 25 24 27 28 29 30
33 37 36 37 37 36 31 31 20 12 25 34 38 38 40 42 44 44 42 39 43 40 39 38 39 36 37 32 30 31 32 31 28 24 23 24 24 24 23 23 24 25 26
34 37 37 38 36 36 35 32 35 31 23 11 18 35 39 42 43 44 44 40 40 41 40 40 39 36 35 34 31 29 29 27 29 26 21 23 22 21 20 23 23 21 22
33 33 35 35 32 31 31 34 38 34 32 28 22 17 11 21 31 41 42 39 41 39 37 38 39 38 37 36 34 32 30 28 27 24 22 12 15 18 18 20 21 22 22
33 30 30 30 24 34 36 35 34 31 31 29 26 25 21 17 11 11 7 30 33 34 36 38 41 40 39 38 36 33 31 26 22 23 21 18 18 14 22 23 22 23 25
29 27 26 25 30 26 33 29 32 30 28 26 23 24 25 22 17 17 4 5 20 29 31 35 38 43 39 45 45 41 41 33 30 28 25 21 26 28 23 27 25 17 10
24 25 24 27 20 21 27 31 26 29 25 25 19 14 17 14 23 16 11 8 1 5 23 23 25 31 41 41 46 48 44 44 46 39 32 30 30 30 29 28 29 28 31
20 18 19 20 22 21 22 17 26 21 22 23 22 21 18 16 14 10 14 10 7 7 8 10 16 16 28 35 39 47 45 46 49 44 39 35 34 31 37 40 36 36 27
21 18 18 20 24 21 20 21 15 18 19 16 18 17 14 12 14 11 10 4 4 5 9 6 7 11 11 14 27 30 33 35 40 45 43 43 38 38 37 32 27 23 13
20 20 19 18 18 18 15 15 12 12 14 17 17 20 13 10 10 12 13 11 10 3 6 8 9 9 9 13 13 19 21 28 32 33 33 37 43 35 35 37 33 26 12
18 17 16 16 15 13 14 12 14 14 13 16 18 16 20 16 13 11 13 15 10 8 10 9 7 7 7 8 11 15 16 19 23 25 27 29 34 39 40 36 38 38 25
15 15 16 17 16 15 17 19 17 16 15 16 16 17 15 17 16 16 14 16 13 13 16 15 12 8 7 8 10 12 14 16 18 17 21 24 26 28 30 33 38 40 37
17 15 15 15 15 17 16 18 18 17 17 17 17 17 16 14 16 16 20 16 13 16 18 20 20 16 14 13 13 13 14 17 21 20 24 26 27 25 24 26 28 33 33
19 18 17 17 18 16 17 15 14 16 17 16 17 18 18 17 18 16 14 15 13 13 14 14 15 17 19 17 16 17 18 19 21 25 25 25 25 22 23 25 25 26 24
20 19 18 18 18 19 17 16 17 17 17 20 22 20 20 22 20 19 18 20 20 19 24 18 13 12 16 18 19 17 17 18 21 24 25 23 22 22 23 23 24 25 14
21 19 21 20 21 20 21 23 20 22 21 23 26 27 31 31 35 32 29 28 27 26 25 21 18 15 16 16 15 15 18 20 21 21 22 23 24 24 24 24 25 24 22
22 22 21 21 21 21 22 23 24 25 25 23 25 26 29 32 31 33 32 29 27 24 24 23 21 19 18 17 17 15 17 20 20 20 22 24 24 23 26 25 23 20 19
19 20 19 20 21 22 23 25 24 23 23 24 24 24 29 28 30 28 28 28 25 24 26 23 21 21 21 19 17 17 15 16 19 22 23 23 23 23 21 22 24 21 20
19 20 21 23 23 23 24 23 22 22 23 24 24 22 23 23 26 24 26 25 22 22 21 22 23 24 23 22 21 17 18 21 22 22 22 22 23 23 20 18 19 21 24
23 24 24 23 25 22 23 22 23 21 22 22 22 23 23 20 15 18 22 23 22 22 22 22 22 23 26 24 22 21 18 22 22 21 21 22 23 24 21 23 24 24 20
20 19 21 24 23 23 24 23 23 22 23 23 24 24 24 23 20 18 19 19 21 21 21 23 23 23 25 25 23 22 22 23 23 22 23 24 24 24 24 24 23 22 24
18 18 19 20 20 20 22 23 21 23 22 22 23 24 25 23 18 18 20 21 23 23 22 24 26 26 26 25 24 25 24 25 25 24 23 23 25 25 26 26 25 25 27
19 20 20 19 20 22 21 20 23 22 23 23 23 24 21 20 17 18 20 22 20 23 24 25 25 24 24 27 27 27 27 28 29 29 27 25 26 27 28 26 27 28 28
19 21 21 21 21 23 22 24 22 22 22 21 20 19 19 17 17 17 17 18 18 19 21 23 25 26 25 27 26 26 26 27 28 29 30 30 27 30 30 28 27 27 30
20 20 20 20 22 22 23 23 22 23 23 21 21 21 20 19 16 15 16 15 13 13 14 16 19 21 21 22 22 24 25 26 27 29 31 31 29 30 29 28 30 30 29
18 18 18 19 20 22 22 21 22 23 22 23 22 21 19 18 15 13 12 10 8 7 8 10 13 14 15 17 19 21 23 25 27 29 31 33 32 30 29 29 28 28 28
Wind_Direction
40 43 46 48 50 59 218 224 215 199 192 198 197 197 194 196 197 199 203 202 202 205 207 209 213 213 215 212 212 214 218 221 238 240 246 212 213 219 220 223 224 224 229
40 47 46 46 49 48 44 49 68 131 203 205 200 200 198 198 196 199 200 200 201 204 205 207 212 211 215 215 215 214 215 219 225 238 228 232 211 221 220 221 222 225 229
37 43 41 41 41 45 41 44 48 46 59 144 192 203 197 195 197 199 199 200 202 204 204 205 209 208 211 212 212 214 215 216 223 233 236 228 220 220 219 220 220 227 229
33 36 39 40 35 40 42 45 49 44 41 43 58 106 126 194 201 198 198 201 201 202 205 210 212 208 209 208 210 212 213 213 214 221 225 210 204 210 211 216 221 227 235
31 28 30 35 25 39 41 40 44 48 42 38 29 58 68 85 65 155 184 209 202 201 207 211 213 215 214 212 208 209 209 206 206 212 216 220 214 196 204 219 221 231 235
25 23 21 21 29 24 35 29 40 35 36 38 31 36 43 41 45 56 111 258 210 204 205 213 213 215 224 222 222 218 212 203 206 206 212 216 224 225 223 210 216 218 243
21 28 11 18 24 15 31 22 17 27 20 27 16 12 46 26 47 22 41 20 4 221 203 203 215 214 214 219 227 229 224 220 225 214 216 220 228 225 216 214 220 209 227
25 18 21 18 13 12 27 11 18 6 10 5 0 352 13 6 28 15 30 359 7 326 272 215 220 216 222 226 227 223 220 218 219 217 222 233 232 235 228 233 225 226 238
22 9 8 9 17 17 5 10 4 1 344 339 355 324 354 342 336 354 353 3 294 334 302 292 242 229 215 214 220 219 224 228 232 230 234 241 233 232 236 230 215 199 203
7 359 6 8 8 4 356 356 339 353 335 337 312 330 322 324 317 318 290 300 283 299 294 274 261 244 233 237 237 235 225 227 234 241 241 243 237 234 230 238 227 210 191
358 349 353 360 359 354 342 341 350 332 331 329 323 320 318 317 308 285 291 263 260 273 269 272 287 288 235 223 236 242 241 244 245 247 249 250 246 243 238 232 227 230 213
341 345 342 345 344 347 341 343 344 340 336 324 325 323 326 317 310 303 292 288 266 254 266 273 279 280 262 241 238 250 254 258 253 247 242 244 245 243 246 244 236 237 232
341 341 339 333 332 335 340 336 330 336 326 328 320 318 316 316 306 305 308 300 284 269 261 268 274 274 272 262 260 254 251 250 254 252 241 240 240 246 245 242 239 235 235
339 335 336 335 336 337 332 320 317 319 309 315 309 302 301 299 297 303 309 305 310 300 290 285 275 273 269 267 269 266 256 245 250 253 251 253 250 240 235 231 222 218 211
338 337 334 332 329 328 323 312 300 295 294 291 291 295 300 290 281 282 282 286 293 299 303 302 279 263 260 256 255 260 258 257 246 243 245 246 242 234 229 221 219 200 188
334 336 333 328 324 320 315 311 307 301 298 293 287 286 281 275 281 280 280 278 274 273 274 277 273 261 250 240 235 244 247 247 250 248 244 240 232 223 219 214 212 202 184
327 327 328 323 320 315 314 312 311 314 310 296 293 291 285 281 283 282 280 279 276 265 249 251 256 256 256 251 244 236 232 244 246 247 245 241 232 220 208 197 195 187 172
320 319 321 320 316 312 310 307 305 307 308 307 306 295 287 284 284 283 280 276 268 256 247 250 250 249 246 246 246 246 241 231 231 229 235 236 226 210 192 186 182 176 167
322 318 318 316 310 306 306 304 298 297 298 300 301 294 288 283 286 280 276 265 259 254 249 244 245 250 253 250 244 242 241 249 239 233 228 225 224 206 195 189 179 176 163
320 316 312 309 307 306 310 311 309 306 306 304 304 302 302 302 266 256 260 264 257 256 251 247 239 239 246 248 247 245 243 251 245 236 223 218 210 199 187 177 172 164 163
312 310 308 309 306 309 312 312 311 313 311 308 304 305 304 292 278 273 273 255 257 254 244 239 234 228 240 241 239 239 239 240 237 229 216 208 202 184 183 174 164 159 150
315 313 313 312 310 316 316 311 309 309 307 307 307 307 310 299 280 273 269 267 262 260 257 244 232 229 231 231 227 234 234 227 223 216 211 199 188 180 171 163 157 154 150
323 321 321 323 324 324 324 324 320 321 320 319 316 311 309 301 302 290 282 275 270 263 259 241 233 230 231 239 242 239 226 220 218 213 199 188 177 170 165 161 156 152 152
331 328 329 328 330 331 331 328 329 330 325 323 318 315 318 316 306 305 304 301 291 280 266 249 239 238 238 244 245 239 231 221 216 207 197 183 174 166 157 153 153 149 146
334 331 331 332 331 332 332 333 336 334 336 336 339 337 336 335 331 324 319 313 303 291 277 262 252 248 245 242 235 229 223 216 206 195 183 175 165 157 150 148 145 143 145
337 336 335 335 334 336 336 338 341 343 344 353 354 353 353 350 346 342 336 325 306 287 273 262 253 243 233 227 223 216 205 196 188 180 173 166 159 151 148 142 142 144 145